Tracking 19563 objects as of 20-Mar-2019
HD Live streaming from Space Station
objects crossing your sky now

IDEFIX/ARIANE 42P

Track IDEFIX/ARIANE 42P now!
10-day predictions
IDEFIX/ARIANE 42P is classified as:


NORAD ID: 27422
Int'l Code: 2002-021B
Perigee: 792.0 km
Apogee: 810.7 km
Inclination: 98.3 °
Period: 100.8 minutes
Semi major axis: 7172 km
RCS: 8.1333 m2 (large)
Launch date: May 4, 2002
Source: France (FR)
Launch site: FRENCH GUIANA (FRGUI)

Uplink (MHz):
Downlink (MHz): 145.840
Beacon (MHz): 145.840
Mode: 400bps BPSK
Call sign:
Status: Inactive


Uplink (MHz):
Downlink (MHz): 435.270
Beacon (MHz): 435.270
Mode: 400bps BPSK
Call sign:
Status: Inactive

aabbcc
Your satellite tracking list
Your tracking list is empty




NASA's NSSDC Master Catalog

Two Line Element Set (TLE):
1 27422U 02021B   19078.50893035 -.00000024 +00000-0 +68211-5 0  9990
2 27422 098.2907 055.1439 0013035 135.2130 225.0108 14.29268738880035
Source of the keplerian elements: AFSPC